This demonstration page uses our WeatherBlox Daily Observations layout. Learn more.

Left ArrowRight Arrow

Hourly Observations for June 29, 2017

Temp ( °F °C ) Dew Point ( °F °C ) Humidity (%) Winds ( mph kmh ) Pressure ( in mb ) Visibility ( mi km ) Precip ( " mm )
12:51 am 00:51 Clear 83 28.3 37 2.8 19 19 NW 12 19 29.69 1006 10 16 N/A
1:51 am 01:51 Clear 84 28.9 37 2.8 19 19 NW 12 19 29.69 1005 10 16 N/A
2:51 am 02:51 Clear 82 27.8 36 2.2 19 19 WNW 9 15 29.70 1006 10 16 N/A
3:51 am 03:51 Clear 78 25.6 36 2.2 22 22 NNW 6 9 29.71 1006 10 16 N/A
4:51 am 04:51 Clear 75 23.9 36 2.2 24 24 N N/A 29.74 1007 10 16 N/A
5:51 am 05:51 Sunny 73 22.8 36 2.2 26 26 E 6 9 29.76 1008 10 16 N/A
6:51 am 06:51 Sunny 81 27.2 37 2.8 21 21 SE 3 6 29.77 1008 10 16 N/A
7:51 am 07:51 Sunny 83 28.3 38 3.3 20 20 S 6 9 29.79 1009 10 16 N/A
8:51 am 08:51 Sunny 87 30.6 34 1.1 15 15 SW 3 6 29.78 1009 10 16 N/A
9:51 am 09:51 Sunny 92 33.3 30 -1.1 11 11 W 3 6 29.78 1008 10 16 N/A
10:51 am 10:51 Sunny 95 35 30 -1.1 10 10 W 9 15 29.77 1008 10 16 N/A
11:51 am 11:51 Sunny 98 36.7 28 -2.2 8 8 W 8 13 29.75 1008 10 16 N/A
12:51 pm 12:51 Sunny 100 37.8 23 -5 6 6 W 14 22 29.72 1007 10 16 N/A
1:51 pm 13:51 Sunny 101 38.3 23 -5 6 6 VRB 6 9 29.70 1006 10 16 N/A
2:51 pm 14:51 Sunny 103 39.4 22 -5.6 5 5 W 17 28 29.67 1005 10 16 N/A
3:51 pm 15:51 Sunny 102 38.9 23 -5 6 6 WNW 12 19 29.66 1004 10 16 N/A
4:51 pm 16:51 Sunny 102 38.9 24 -4.4 6 6 NW 14 22 29.65 1004 10 16 N/A
5:51 pm 17:51 Mostly Sunny 100 37.8 22 -5.6 6 6 WNW 14 22 29.65 1004 10 16 N/A
6:51 pm 18:51 Mostly Sunny 98 36.7 24 -4.4 7 7 WNW 18 30 29.65 1004 10 16 N/A
7:51 pm 19:51 Mostly Clear 93 33.9 22 -5.6 7 7 NW 16 26 29.67 1005 10 16 N/A
8:51 pm 20:51 Clear 91 32.8 24 -4.4 9 9 NW 12 19 29.68 1005 10 16 N/A
9:51 pm 21:51 Clear 85 29.4 26 -3.3 12 12 W 9 15 29.71 1006 10 16 N/A
10:51 pm 22:51 Clear 80 26.7 28 -2.2 15 15 NW 7 11 29.72 1007 10 16 N/A
11:51 pm 23:51 Clear 78 25.6 28 -2.2 16 16 NW 8 13 29.73 1007 10 16 N/A

Powered by AerisWeather